Location: Cosy Dell
(34.2789°N, 117.4537°W)
Time: 21:02:20
(UTC+00:00)

Meteor 2-3 Rocket - Pass Details

Date: 14 July 2020
Orbit: 843 x 884 km, 81.2° (Epoch: 13 August)

Event Time Altitude Azimuth Distance (km) Brightness Sun altitude
Exits shadow 06:46:55 60° 324° (NW) 982 4.1 -31.8°
Drops below altitude 10° 06:51:50 10° 3° (N) 2,521 6.9 -32.1°
Sets 06:54:19 0° 6° (N) 3,469 7.8 -32.2°
